Stündliche Wetter Bolshoe Aksenovo

Heute, 16 Januar, Samstag

Zeit Temperatur Niederschläge Wind Luftdruck Luftfeuchtigkeit
00:00 -23°C° 0 mm 2 m/S 747 mmHg 96%
01:00 -23°C° 0 mm 2 m/S 747 mmHg 95%
02:00 -21°C° 0 mm 2 m/S 747 mmHg 97%
03:00 -21°C° 0.1 mm 2 m/S 746 mmHg 96%
04:00 -22°C° 0.1 mm 3 m/S 745 mmHg 96%
05:00 -22°C° 0.1 mm 3 m/S 745 mmHg 96%
06:00 -22°C° 0.3 mm 3 m/S 745 mmHg 96%
07:00 -22°C° 0.3 mm 3 m/S 745 mmHg 96%
08:00 -22°C° 0 mm 3 m/S 745 mmHg 96%
09:00 -22°C° 0.4 mm 4 m/S 744 mmHg 95%
10:00 -22°C° 0.4 mm 4 m/S 744 mmHg 95%
11:00 -22°C° 0.4 mm 4 m/S 744 mmHg 95%
12:00 -22°C° 0.2 mm 4 m/S 743 mmHg 94%
13:00 -22°C° 0.2 mm 5 m/S 743 mmHg 93%
14:00 -22°C° 0.2 mm 5 m/S 743 mmHg 92%
15:00 -22°C° 0.1 mm 5 m/S 743 mmHg 92%
16:00 -23°C° 0.1 mm 4 m/S 743 mmHg 92%
17:00 -23°C° 0.1 mm 4 m/S 743 mmHg 92%
18:00 -23°C° 0 mm 4 m/S 743 mmHg 93%
19:00 -24°C° 0 mm 4 m/S 744 mmHg 93%
20:00 -24°C° 0 mm 4 m/S 744 mmHg 93%
21:00 -25°C° 0 mm 4 m/S 744 mmHg 94%
22:00 -25°C° 0 mm 3 m/S 744 mmHg 95%
23:00 -26°C° 0 mm 3 m/S 745 mmHg 95%

Morgen, 17 Januar, Sonntag

Zeit Temperatur Niederschläge Wind Luftdruck Luftfeuchtigkeit
00:00 -26°C° 0 mm 3 m/S 745 mmHg 96%
01:00 -26°C° 0 mm 2 m/S 746 mmHg 96%
02:00 -26°C° 0 mm 2 m/S 746 mmHg 96%
03:00 -27°C° 0 mm 2 m/S 746 mmHg 97%
04:00 -28°C° 0 mm 2 m/S 746 mmHg 97%
05:00 -29°C° 0 mm 2 m/S 746 mmHg 97%
06:00 -29°C° 0 mm 2 m/S 747 mmHg 97%
07:00 -29°C° 0 mm 2 m/S 747 mmHg 97%
08:00 -29°C° 0 mm 2 m/S 748 mmHg 97%
09:00 -28°C° 0 mm 2 m/S 748 mmHg 96%
10:00 -26°C° 0 mm 2 m/S 749 mmHg 96%
11:00 -22°C° 0 mm 1 m/S 749 mmHg 95%
12:00 -21°C° 0 mm 1 m/S 750 mmHg 95%
13:00 -21°C° 0 mm 1 m/S 750 mmHg 95%
14:00 -20°C° 0 mm 1 m/S 750 mmHg 96%
15:00 -21°C° 0 mm 1 m/S 750 mmHg 96%
16:00 -23°C° 0 mm 1 m/S 750 mmHg 97%
17:00 -24°C° 0 mm 1 m/S 750 mmHg 97%
18:00 -24°C° 0 mm 1 m/S 751 mmHg 97%
19:00 -24°C° 0 mm 1 m/S 751 mmHg 97%
20:00 -24°C° 0 mm 1 m/S 751 mmHg 97%
21:00 -24°C° 0 mm 1 m/S 751 mmHg 97%
22:00 -24°C° 0 mm 1 m/S 751 mmHg 97%
23:00 -24°C° 0 mm 1 m/S 751 mmHg 97%

übermorgen, 18 Januar, Montag

Zeit Temperatur Niederschläge Wind Luftdruck Luftfeuchtigkeit
00:00 -24°C° 0 mm 1 m/S 751 mmHg 96%
01:00 -24°C° 0 mm 1 m/S 751 mmHg 96%
02:00 -24°C° 0 mm 1 m/S 751 mmHg 96%
03:00 -24°C° 0 mm 1 m/S 751 mmHg 96%
04:00 -24°C° 0 mm 1 m/S 751 mmHg 96%
05:00 -24°C° 0 mm 1 m/S 751 mmHg 96%
06:00 -24°C° 0 mm 1 m/S 751 mmHg 96%
07:00 -24°C° 0 mm 1 m/S 751 mmHg 96%
08:00 -24°C° 0 mm 1 m/S 751 mmHg 96%
09:00 -23°C° 0 mm 1 m/S 751 mmHg 95%
10:00 -21°C° 0 mm 1 m/S 751 mmHg 95%
11:00 -19°C° 0 mm 1 m/S 751 mmHg 94%
12:00 -19°C° 0 mm 1 m/S 751 mmHg 95%
13:00 -18°C° 0 mm 1 m/S 751 mmHg 95%
14:00 -18°C° 0 mm 1 m/S 751 mmHg 95%
15:00 -19°C° 0 mm 1 m/S 750 mmHg 96%
16:00 -20°C° 0 mm 1 m/S 750 mmHg 96%
17:00 -21°C° 0 mm 1 m/S 750 mmHg 97%
18:00 -21°C° 0 mm 1 m/S 750 mmHg 97%
19:00 -20°C° 0 mm 1 m/S 750 mmHg 98%
20:00 -20°C° 0 mm 1 m/S 750 mmHg 98%
21:00 -20°C° 0 mm 1 m/S 750 mmHg 98%
22:00 -19°C° 0 mm 1 m/S 750 mmHg 98%
23:00 -19°C° 0 mm 1 m/S 750 mmHg 98%

19 Januar, Dienstag

Zeit Temperatur Niederschläge Wind Luftdruck Luftfeuchtigkeit
00:00 -19°C° 0 mm 1 m/S 750 mmHg 97%
01:00 -19°C° 0 mm 1 m/S 750 mmHg 97%
02:00 -18°C° 0 mm 1 m/S 750 mmHg 97%
03:00 -18°C° 0 mm 1 m/S 750 mmHg 97%
04:00 -17°C° 0 mm 1 m/S 750 mmHg 97%
05:00 -17°C° 0 mm 1 m/S 749 mmHg 97%
06:00 -17°C° 0 mm 1 m/S 749 mmHg 97%
07:00 -17°C° 0 mm 1 m/S 749 mmHg 97%
08:00 -17°C° 0 mm 1 m/S 749 mmHg 97%
09:00 -16°C° 0 mm 1 m/S 749 mmHg 96%
10:00 -14°C° 0 mm 1 m/S 749 mmHg 94%
11:00 -13°C° 0 mm 1 m/S 749 mmHg 93%
12:00 -13°C° 0 mm 1 m/S 749 mmHg 94%
13:00 -12°C° 0 mm 1 m/S 749 mmHg 95%
14:00 -12°C° 0 mm 1 m/S 749 mmHg 95%
15:00 -13°C° 0 mm 1 m/S 749 mmHg 96%
16:00 -13°C° 0 mm 1 m/S 749 mmHg 96%
17:00 -14°C° 0 mm 1 m/S 749 mmHg 96%
18:00 -14°C° 0 mm 1 m/S 749 mmHg 96%
19:00 -14°C° 0 mm 1 m/S 749 mmHg 96%
20:00 -14°C° 0 mm 1 m/S 750 mmHg 96%
21:00 -14°C° 0 mm 1 m/S 750 mmHg 97%
22:00 -15°C° 0 mm 1 m/S 750 mmHg 97%
23:00 -15°C° 0 mm 1 m/S 750 mmHg 97%

20 Januar, Mittwoch

Zeit Temperatur Niederschläge Wind Luftdruck Luftfeuchtigkeit
00:00 -15°C° 0 mm 1 m/S 750 mmHg 97%
01:00 -16°C° 0 mm 1 m/S 750 mmHg 97%
02:00 -16°C° 0 mm 1 m/S 750 mmHg 97%
03:00 -16°C° 0 mm 1 m/S 750 mmHg 97%
04:00 -16°C° 0 mm 1 m/S 750 mmHg 97%
05:00 -16°C° 0 mm 1 m/S 750 mmHg 97%
06:00 -16°C° 0 mm 1 m/S 751 mmHg 97%
07:00 -18°C° 0 mm 2 m/S 751 mmHg 97%
08:00 -19°C° 0 mm 2 m/S 751 mmHg 97%
09:00 -18°C° 0 mm 2 m/S 751 mmHg 96%
10:00 -17°C° 0 mm 2 m/S 751 mmHg 95%
11:00 -15°C° 0 mm 2 m/S 751 mmHg 94%
12:00 -15°C° 0 mm 2 m/S 751 mmHg 94%
13:00 -15°C° 0 mm 2 m/S 751 mmHg 94%
14:00 -14°C° 0 mm 2 m/S 751 mmHg 94%
15:00 -15°C° 0 mm 2 m/S 751 mmHg 95%
16:00 -16°C° 0 mm 2 m/S 751 mmHg 95%
17:00 -17°C° 0 mm 2 m/S 751 mmHg 96%
18:00 -17°C° 0 mm 2 m/S 750 mmHg 95%
19:00 -17°C° 0 mm 3 m/S 750 mmHg 94%
20:00 -17°C° 0 mm 3 m/S 750 mmHg 93%
21:00 -17°C° 0 mm 3 m/S 749 mmHg 91%
22:00 -16°C° 0 mm 3 m/S 749 mmHg 90%
23:00 -16°C° 0 mm 3 m/S 748 mmHg 89%

21 Januar, Donnerstag

Zeit Temperatur Niederschläge Wind Luftdruck Luftfeuchtigkeit
00:00 -16°C° 0.1 mm 4 m/S 748 mmHg 91%
01:00 -15°C° 0.1 mm 4 m/S 747 mmHg 92%
02:00 -14°C° 0.1 mm 4 m/S 747 mmHg 94%
03:00 -14°C° 0.4 mm 4 m/S 746 mmHg 94%
04:00 -12°C° 0.4 mm 4 m/S 745 mmHg 94%
05:00 -11°C° 0.4 mm 4 m/S 744 mmHg 94%
06:00 -11°C° 0.5 mm 4 m/S 744 mmHg 94%
07:00 -10°C° 0.5 mm 4 m/S 744 mmHg 94%
08:00 -10°C° 0.5 mm 4 m/S 743 mmHg 94%
09:00 -9°C° 0.2 mm 4 m/S 743 mmHg 94%
10:00 -8°C° 0.2 mm 4 m/S 743 mmHg 94%
11:00 -6°C° 0.2 mm 3 m/S 743 mmHg 94%
12:00 -6°C° 0.2 mm 3 m/S 743 mmHg 94%
13:00 -6°C° 0.2 mm 3 m/S 743 mmHg 94%
14:00 -5°C° 0.2 mm 3 m/S 743 mmHg 95%
15:00 -5°C° 0.2 mm 3 m/S 743 mmHg 95%
16:00 -4°C° 0.2 mm 3 m/S 743 mmHg 96%
17:00 -4°C° 0.2 mm 3 m/S 743 mmHg 96%
18:00 -2°C° 0.3 mm 3 m/S 743 mmHg 97%
19:00 -2°C° 0.3 mm 3 m/S 743 mmHg 97%
20:00 -1°C° 0.3 mm 3 m/S 743 mmHg 97%
21:00 -1°C° 0.4 mm 3 m/S 743 mmHg 98%
22:00 -1°C° 0.4 mm 4 m/S 743 mmHg 98%
23:00 -1°C° 0.4 mm 4 m/S 743 mmHg 98%
Mehr zeigen

Wir brauchen deine Erlaubnis

Meteoprog und unser Service Anbieter werden persönliche Daten aufbewahren, so wie Cookies, Geräte Bezeichnung oder ähnliche Technologien von deinem Gerät und Prozess, so wie Persönliche Daten Inhalte und Werbungen, genauso wie social Media und den Verkehr zu analysieren.

  • Aufbewahrung und/oder Zugang zu deiner Geräte Informationen.

    Cookies, Geräte Bezeichnung oder andere Informationen, können aufbewahrt oder Zugang zu deinem Gerät erhalten, für den Grund, der oben angegeben wird.

  • Personalisierte Werbung und Inhalte, Messungen, Einblick in das Publikum und Produkt Entwicklung.

    Werbungen und Inhalte können personalisiert werden, basierend auf ein Profil. Mehr Daten können besser personalisierte Werbungen und Inhalte hinzufügen. Werbung und Inhalte können gezeigt und gemessen werden. Einblicke über das Publikum, welche die Werbung gesehen haben und den Inhalt, können abgeleitet werden. So wie Daten können genutzt werden, um es zu verbessern oder die Benutzer Erfahrung zu verbessern das System und die Software.

Wenn du “Ich stimme zu” klickst, erlaubst du uns, die Cookies zu benutzen die Geräte Bezeichnung, den Web oder ähnliche Technologien zu benutzen. Deine Settings, können in deinem Gerät bei deinem Browser geändert werden.

Für den bestimmten Zweck, berechtigten Interessen beruhen darauf, mehr als auf den Inhalt. Du kannst mehr darüber in unseren Privaten und Cookie Politik lesen.